Location: Izdebno
(52.6670°N, 16.2170°E)
Time: 19:36:51
(UTC+01:00)

Transit 2A - Pass Details

Date: 30 January 2023
Orbit: 591 x 964 km, 66.7° (Epoch: 21 March)

Event Time Altitude Azimuth Distance (km) Brightness Sun altitude
Rises 01:30:34 0° 319° (NW) 3,391 - -51.6°
Reaches altitude 10° 01:33:00 10° 324° (NW) 2,507 - -51.4°
Maximum altitude 01:38:47 57° 43° (NE) 1,069 - -50.9°
Drops below altitude 10° 01:44:58 10° 122° (ESE) 2,675 - -50.3°
Sets 01:47:38 0° 126° (SE) 3,635 - -50.1°
